STARLINK-33712, 63797

Orbit data source: Space-Track

STARLINK-33712, 63797 is a payload satellite owned by SpaceX/Seattle (US) in LEO that was launched on Fri, 02 May 2025 UTC via an FALCON 9 launch vehicle from the Air Force Eastern Test Range (AFETR). Payload-class satellites include a variety of spacecraft equipped with specific instruments for various scientific and technological missions. These include communications satellites like Starlink; space stations such as the ISS; scientific satellites like the Hubble; Earth observation satellites from companies like Planet Labs, Umbra, and HawkEye 360; GPS; miniature CubeSats for education and research; and military/defense satellites.

Loading next visibility...
Identifier
63797, 2025-091Y
Orbit
LEO
Country
Flag of USUS
Related business
Manufacturer
SpaceX/Seattle
Mission
Operational Commercial Communications
Bus & Motor
STARLINK V2MO, Unknown motor
Mass
575 kg wet, ~530 kg dry
Launch date (UTC)
2025-05-02 (1 year ago)
Launch vehicle
FALCON 9
Launch site
Air Force Eastern Test Range (AFETR)
Object type
Payload
Rocket body
Debris
Shape & HBR
Box + 2 Pan, 17.7 m
Radar Cross Section
36.964 m², Large (>1 m²)

Expand to show TLE details & history
Last TLE update: 12 hours ago

TLE from 12 hours ago
0 STARLINK-33712
1 63797U 25091Y   26171.36443772  .00013786  00000-0  50997-3 0  9990
2 63797  42.9984 196.3106 0001029 267.9602  92.1131 15.27552660 64567
Epoch: 2026-06-20T08:44Z
TLE epoch observation values (Epoch: 2026-06-20T08:44:47.419Z)
Latitude
-0.00009°
Longitude
156.53281°
Altitude
482.932 km
Speed
7.626 km/s
True Right ascension
13h 05m 14s
True Declination
0° 00' 00"
Sunlit
Object was in daylight at epoch
Visualization orbit readout
Latitude
Unknown
Longitude
Unknown
Altitude
Unknown
Speed
Unknown
Apparent Right ascension
Unknown
Apparent Declination
Unknown
Sunlit
N/A
Visualization observer readout
Local Sidereal Time
07:17:17
Azimuth
Unknown
Elevation
Unknown
Doppler factor
Unknown
Orbital elements
Apogee altitude
485.783 km
Perigee altitude
484.37 km
Semi-major axis
6,863.213 km
Eccentricity
0.0001
Inclination
42.9984°
RAAN
196.3106°
Arg. of periapsis
267.9602°
True anomaly
92.12488°
Mean anomaly
92.1131°
Eccentric anomaly
92.11899°
Mean motion
3.81726 °/min
Orbital period
94.31 mins
BSTAR
0.00050997
Loading maneuver chart data...
Computing Atmospheric mass density...
Loading historical data...
Loading historical data...
Loading historical data...
Loading historical data...
Loading historical data...
Loading historical data...
Loading historical data...

Documentation

Showing up to 5 results
|